Regional Weather Roundup
Issued by NWS Sterling, VA

Home | Current Version | Previous Version | Graphics & Text | Print | Product List | Glossary On
Versions: 1 2 3 4 5 6 7 8 9 10 11 12 13 14 15 16 17 18 19 20 21 22 23 24 25 26 27 28 29 30 31 32 33 34 35 36 37 38 39 40 41 42 43 44 45 46 47 48 49 50
000
ASUS41 KLWX 240910
RWRLWX

REGIONAL WEATHER ROUNDUP
NATIONAL WEATHER SERVICE BALTIMORE MD/WASHINGTON DC
500 AM EDT THU JUL 24 2014

Note: "FAIR" indicates few or no clouds below 12,000 feet
with no significant weather and/or obstructions to visibility.
 TC=TEMPERATURE CELSIUS

 * =Non NWS site. Station does not report precipitation (e.g. rain,
    snow, etc.), thunder, or fog.

DCZ001-MDZ009-015-VAZ040>042-051-053>054-241000-
WASHINGTON METRO
  /KDAA//-FT BELVOIR

CITY           SKY/WX    TMP DP  RH WIND       PRES   REMARKS
WASHINGTON NAT LGT RAIN  77  69  76 N9        29.88R
DULLES         LGT RAIN  71  69  93 NW6       29.89R
ANDREWS AFB    RAIN      75  70  86 N8        29.87S
QUANTICO       CLOUDY    75  70  84 N9        29.87S
COLLEGE PARK*  CLOUDY    75  72  88 CALM      29.88R
LEESBURG*      DRIZZLE   72  72 100 N6        29.89F
MANASSAS*      CLOUDY    73  72  94 N8        29.88S
GAITHERSBURG*  CLOUDY    70  70 100 CALM      29.92S

$$

MDZ006>007-011-014-241000-
BALTIMORE METRO

CITY           SKY/WX    TMP DP  RH WIND       PRES   REMARKS
BWI AIRPORT    CLOUDY    72  69  90 NW3       29.86R
MD SCIENCE CTR   N/A     75  67  76 MISG      29.87R
MARTIN STATE   CLOUDY    72  72 100 NW6       29.88R
ANNAPOLIS      CLOUDY    76  70  82 N7        29.86R
FORT MEADE*    CLOUDY    72  68  88 CALM      29.90R

$$

MDZ012-015-019>023-241000-
MARYLAND EASTERN SHORE

CITY           SKY/WX    TMP DP  RH WIND       PRES   REMARKS
OCEAN CITY     MOCLDY    72  70  93 NW3       29.82F
SALISBURY      NOT AVBL
BAY BRIDGE AP*   N/A     73  70  88 NE5       29.87R
CAMBRIDGE*     MOCLDY    77  73  88 N6        29.84R
EASTON*        MOCLDY    74  74 100 CALM      29.88R

$$

MDZ017>025-241000-
SOUTHERN MARYLAND

CITY           SKY/WX    TMP DP  RH WIND       PRES   REMARKS
PATUXENT RIVER LGT RAIN  76  73  91 NW9       29.84R
ST INIGOES     CLOUDY    76  70  82 VRB3      29.83S
LEONARDTOWN*   CLOUDY    72  70  94 CALM      29.86S

$$

MDZ003>005-241000-
NORTH CENTRAL MARYLAND

CITY           SKY/WX    TMP DP  RH WIND       PRES   REMARKS
FREDERICK*     LGT RAIN  72  72 100 CALM      29.91F
HAGERSTOWN APT CLOUDY    70  64  81 NW6       29.90S
WESTMINSTER*   HVY RAIN  70  68  94 CALM      29.91R

$$

MDZ501>502-241000-
WESTERN MARYLAND

CITY           SKY/WX    TMP DP  RH WIND       PRES   REMARKS
OAKLAND*       FOG       59 N/A N/A N5        30.01S VSB 3/4
CUMBERLAND*    CLOUDY    72  61  68 N3        29.97R

$$

VAZ025>031-241000-
SHENANDOAH VALLEY

CITY           SKY/WX    TMP DP  RH WIND       PRES   REMARKS
WINCHESTER*    CLOUDY    70  66  88 N5        29.90F
STAUNTON*      CLOUDY    70  68  93 CALM      29.93S FOG

$$

WVZ021-048>050-054>055-241000-
EASTERN WEST VIRGINIA PANHANDLE

CITY           SKY/WX    TMP DP  RH WIND       PRES   REMARKS
MARTINSBURG    CLOUDY    71  64  78 NW8       29.91S
PETERSBURG*    CLOUDY    70  65  86 CALM      29.93S HAZE

$$

VAZ036>039-050-241000-
CENTRAL FOOTHILLS

CITY           SKY/WX    TMP DP  RH WIND       PRES   REMARKS
CHARLOTTESVILL CLOUDY    71  69  93 CALM      29.88S
ORANGE*        RAIN      72  68  88 CALM      29.90R

$$

VAZ055>057-241000-
NORTH AND CENTRAL PIEDMONT

CITY           SKY/WX    TMP DP  RH WIND       PRES   REMARKS
FREDERICKSBRG* LGT RAIN  75  71  87 N3        29.86S
STAFFORD*      LGT RAIN  73  73 100 NW3       29.91S

$$

NCZ024-NYZ072-PAZ021-071-VAZ022-071-241000-
OTHER REGIONAL OBSERVATIONS

CITY           SKY/WX    TMP DP  RH WIND       PRES   REMARKS
NEW YORK CITY  CLOUDY    73  64  73 MISG      29.85R
PHILADELPHIA   CLOUDY    73  63  70 N10       29.84S
PITTSBURGH     CLOUDY    62  58  86 N9        30.00R
ROANOKE        CLOUDY    72  66  83 N5        29.93F
RICHMOND       CLOUDY    79  68  69 N7        29.84F
RALEIGH        PTCLDY    75  71  87 SW6       29.89F

$$

ANZ530>537-241000-
MARINE OBSERVATIONS

STATION/POSITION TIME  TEMP    WIND        PRES
                       AIR SEA DIR/SP/G
                 (UTC) (F)     (DEG/KT/KT) (MB)
THOMAS PT LIGHT  0800   77 80  350/  7/  8 1010.9S
BALT KEY BRIDGE  0800   76     350/  8/ 11 1010.6R
COVE POINT       0800   78     350/ 11/ 13 1010.0F
LEWISETTA        0800   77 82  330/  5/  5 1010.1R
SOLOMONS ISLAND  0800      82                N/A
PINEY POINT      0800          350/ 12/ 13   N/A

$$



USA.gov is the U.S. government's official web portal to all federal, state and local government web resources and services.